Overview Statistics Trail Chart Weather Telemetry Raw packets
 

This is the latest recevied weather packets stored in our database for station/object SR8WXL-13. If no packets are shown the sender has not sent any weather packets the latest 10 day(s).

<< 17 18 19 20 21 22 23 >>
Time Temp. Humidity Pressure Rain* Wind** Luminosity Snow
1788278834 22.22° C 55% 1033.2 hPa 0 mm - - -
1788278064 22.22° C 53% 1033.1 hPa 0 mm - - -
1788277229 22.22° C 53% 1033.2 hPa 0 mm - - -
1788276403 22.22° C 51% 1033.3 hPa 0 mm - - -
1788275524 22.22° C 50% 1032.9 hPa 0 mm - - -
1788274648 22.78° C 50% 1032.8 hPa 0 mm - - -
1788273834 22.22° C 52% 1033 hPa 0 mm - - -
1788272954 22.22° C 53% 1032.9 hPa 0 mm - - -
1788272148 22.78° C 53% 1032.6 hPa 0 mm - - -
1788271344 22.22° C 53% 1032.8 hPa 0 mm - - -
1788270448 22.78° C 51% 1032.6 hPa 0 mm - - -
1788269690 22.22° C 57% 1032.8 hPa 0 mm - - -
1788268883 22.78° C 57% 1032.8 hPa 0 mm - - -
1788268160 23.89° C 55% 1032.5 hPa 0 mm - - -
1788267383 22.78° C 56% 1032.6 hPa 0 mm - - -
1788266639 23.89° C 55% 1032.5 hPa 0 mm - - -
1788265793 22.78° C 56% 1032.5 hPa 0 mm - - -
1788264948 22.78° C 59% 1032.8 hPa 0 mm - - -
1788264203 23.89° C 56% 1032.5 hPa 0 mm - - -
1788263354 23.89° C 57% 1032.6 hPa 0 mm - - -
1788262571 22.78° C 58% 1032.5 hPa 0 mm - - -
1788261810 22.78° C 61% 1032.6 hPa 0 mm - - -
1788260943 22.78° C 61% 1032.7 hPa 0 mm - - -
1788260049 23.89° C 58% 1032.7 hPa 0 mm - - -
1788259153 23.89° C 57% 1032.6 hPa 0 mm - - -

* Rain latest hour (hover to see other rain measurements)
** Current wind speed in m/s (hover to see current wind gust speed)